White Plains, CT

7:38 AM EST on December 12, 2017 (GMT -0500)
Westchester County

Weather History for KHPN - February, 2013

Change the Weather History Date:

Monday, February 18, 2013

  Actual Average Record
Temperature  
Mean Temperature 24 °F -  
Max Temperature 32 °F 38 °F 64 °F (2011)
Min Temperature 15 °F 23 °F -6 °F (1979)
Degree Days  
Heating Degree Days 42    
Moisture  
Dew Point 5 °F    
Average Humidity 45    
Maximum Humidity 55    
Minimum Humidity 32    
Precipitation  
Precipitation 0.00 in - - ()
Sea Level Pressure  
Sea Level Pressure 30.15 in    
Wind  
Wind Speed 19 mph (WNW)    
Max Wind Speed 32 mph    
Max Gust Speed 45 mph    
Visibility 10 miles    
Events      
Averages and records for this station are not official NWS values.
T = Trace of Precipitation, MM = Missing Value Source: NWS Daily Summary

Daily Weather History Graph

Daily Weather History Graph

Search for Another Location

Airport or City:

Trip Planner

Search our weather history database for the weather conditions in past years. The results will help you decide how hot, cold, wet, or windy it might be!

Date:

Astronomy

Feb. 18, 2013 Rise Set
Actual Time 6:44 AM EST 5:33 PM EST
Civil Twilight 6:16 AM EST 6:01 PM EST
Nautical Twilight 5:44 AM EST 6:33 PM EST
Astronomical Twilight 5:12 AM EST 7:05 PM EST
Moon 11:15 AM EST (2/18) 1:23 AM EST (2/18)
Length of Visible Light 11h 44m
Length of Day
10h 48m
First Quarter, 58% of the Moon is Illuminated
Feb 18
First Quarter
Feb 25
Full
Mar 4
Last Quarter
Mar 11
New
Mar 19
First Quarter

Hourly Weather History & Observations

Time (EST) Temp. Windchill Dew Point Humidity Pressure Visibility Wind Dir Wind Speed Gust Speed Precip Events Conditions
12:56 AM 16.0 °F -1.7 °F 1.0 °F 52% 29.98 in 10.0 mi WNW 21.9 mph 39.1 mph N/A   Clear
1:56 AM 16.0 °F -2.8 °F 1.9 °F 54% 29.99 in 10.0 mi WNW 25.3 mph 40.3 mph N/A   Clear
2:56 AM 16.0 °F -4.7 °F 1.9 °F 54% 30.00 in 10.0 mi NW 32.2 mph 44.9 mph N/A   Clear
3:56 AM 16.0 °F -2.1 °F 1.9 °F 54% 30.03 in 10.0 mi WNW 23.0 mph 39.1 mph N/A   Clear
4:56 AM 16.0 °F -3.8 °F 1.9 °F 54% 30.06 in 10.0 mi NW 28.8 mph 41.4 mph N/A   Clear
5:56 AM 15.8 °F -0.6 °F 1.4 °F 53% 30.07 in 10.0 mi WNW 18.4 mph 32.2 mph N/A   Clear
6:56 AM 16.0 °F -2.1 °F 1.9 °F 54% 30.14 in 10.0 mi NW 23.0 mph 35.7 mph N/A   Clear
7:56 AM 17.1 °F -1.7 °F 3.0 °F 54% 30.16 in 10.0 mi NW 26.5 mph 33.4 mph N/A   Clear
8:56 AM 19.0 °F 4.5 °F 3.9 °F 52% 30.19 in 10.0 mi WNW 16.1 mph - N/A   Clear
9:56 AM 21.0 °F 5.4 °F 3.9 °F 48% 30.20 in 10.0 mi WNW 20.7 mph 29.9 mph N/A   Clear
10:56 AM 24.1 °F 10.1 °F 5.0 °F 44% 30.22 in 10.0 mi NW 18.4 mph 25.3 mph N/A   Clear
11:56 AM 26.1 °F 14.5 °F 3.9 °F 39% 30.21 in 10.0 mi WNW 13.8 mph 25.3 mph N/A   Clear
12:56 PM 28.0 °F 15.7 °F 5.0 °F 38% 30.19 in 10.0 mi West 17.3 mph 26.5 mph N/A   Clear
1:56 PM 30.0 °F 19.1 °F 5.0 °F 35% 30.18 in 10.0 mi West 15.0 mph 23.0 mph N/A   Clear
2:56 PM 31.8 °F 21.4 °F 6.8 °F 35% 30.17 in 10.0 mi West 15.0 mph - N/A   Clear
3:56 PM 32.0 °F 22.5 °F 5.0 °F 32% 30.17 in 10.0 mi WNW 12.7 mph 21.9 mph N/A   Clear
4:56 PM 32.0 °F 24.8 °F 5.0 °F 32% 30.18 in 10.0 mi WNW 8.1 mph 18.4 mph N/A   Clear
5:56 PM 30.2 °F 24.3 °F 5.0 °F 34% 30.16 in 10.0 mi West 5.8 mph - N/A   Clear
6:56 PM 28.0 °F 24.2 °F 7.0 °F 41% 30.21 in 10.0 mi West 3.5 mph - 0.00 in   Clear
7:56 PM 25.0 °F - 10.9 °F 55% 30.21 in 10.0 mi Calm Calm - N/A   Clear
8:56 PM 27.0 °F 23.0 °F 7.0 °F 43% 30.22 in 10.0 mi WSW 3.5 mph - N/A   Clear
9:56 PM 28.9 °F 25.2 °F 8.1 °F 41% 30.21 in 10.0 mi SSW 3.5 mph - N/A   Clear
10:56 PM 30.0 °F - 9.0 °F 41% 30.22 in 10.0 mi Calm Calm - N/A   Clear
11:56 PM 30.0 °F - 10.0 °F 43% 30.21 in 10.0 mi Calm Calm - N/A   Scattered Clouds